[[{"header":{"parameterUnit":"m.s-1","parameterCategory":1,"la1":30.2992,"la2":30.254,"lo1":-89.0895,"lo2":-89.0443,"dy":0.0025,"dx":0.0025,"nx":19,"ny":19,"refTime":"2026-05-15T03:00:00:Z","depth":0,"parameterNumber":2,"parameterNumberName":"U-component_of_WINDS"},"data":[0,0,0,-1.878,-1.878,-1.8747,-1.8746,-1.8732,-1.8732,0,0,0,0,0,0,0,0,0,0,0,-1.8808,-1.8809,-1.8781,-1.878,-1.8747,-1.8746,-1.8732,-1.8732,0,0,0,0,0,0,0,0,0,0,0,-1.8808,-1.8809,-1.8809,-1.878,-1.8747,-1.8746,-1.8732,-1.8747,0,0,0,0,0,0,0,0,0,0,-1.8775,-1.8818,-1.8808,-1.8809,-1.878,-1.8747,-1.8746,-1.8747,-1.8746,-1.8759,0,-1.8776,0,-1.8754,-1.8733,-1.8733,0,0,0,-1.8767,-1.8819,-1.8794,-1.8809,-1.878,-1.8747,-1.8758,-1.8746,-1.8745,-1.8758,-1.8776,-1.8774,-1.8754,-1.8733,-1.8733,-1.8854,-1.8855,0,0,-1.8769,-1.8812,-1.8795,-1.8794,-1.8801,-1.8759,-1.8757,-1.8745,-1.8767,-1.8776,-1.8774,-1.8754,-1.8733,-1.8733,-1.8853,-1.8855,0,0,0,-1.8783,-1.8814,-1.8788,-1.8795,-1.8787,-1.8759,-1.8756,-1.8768,-1.8756,-1.8773,-1.8753,-1.8733,-1.8733,-1.8852,-1.8854,-1.8955,0,0,0,-1.8783,-1.8822,-1.879,-1.8816,-1.8788,-1.8777,-1.878,-1.8757,-1.8754,-1.8754,-1.8733,-1.8733,-1.885,-1.8853,-1.895,-1.8997,0,0,0,-1.8804,-1.8824,-1.8825,-1.8818,-1.8805,-1.8776,-1.8763,-1.8755,-1.8743,-1.8733,-1.8733,-1.8849,-1.8852,-1.8945,-1.8989,-1.9043,0,0,0,-1.8839,-1.8917,-1.8828,-1.8906,-1.8806,-1.8839,-1.8763,-1.8785,-1.8789,-1.8733,-1.8851,-1.8853,-1.8943,-1.8984,-1.9038,-1.9098,-1.9126,0,0,-1.8961,-1.8933,-1.8975,-1.8895,-1.8955,-1.8841,-1.8915,-1.8877,-1.8837,-1.8851,-1.8853,-1.8952,-1.8988,-1.9042,-1.9267,-1.929,0,0,0,-1.9028,-1.906,-1.9066,-1.9072,-1.9044,-1.9025,-1.8971,-1.8956,-1.8966,-1.8853,-1.8983,-1.9003,-1.9033,-1.906,-1.9079,-1.9103,-1.8867,-1.8867,-1.8866,-1.9266,-1.9208,-1.9275,-1.9213,-1.9219,-1.9161,-1.9161,-1.9131,-1.9073,-1.9104,-1.9109,-1.9253,-1.9286,-1.93,-1.9325,-1.9134,-1.9134,-1.9134,-1.9135,-1.9441,-1.9477,-1.9394,-1.943,-1.9368,-1.9397,-1.9343,-1.93,-1.9317,-1.9244,-1.9268,-1.9196,-1.9327,-1.9346,-1.9142,-1.9141,-1.914,-1.9139,-1.9138,-1.9592,-1.96,-1.958,-1.958,-1.9587,-1.952,-1.954,-1.9483,-1.9429,-1.9451,-1.9451,-1.9449,-1.9441,-1.9454,-1.9455,-1.9455,-1.9456,-1.9456,-1.9456,-1.9759,-1.9733,-1.9757,-1.9733,-1.9728,-1.9713,-1.9654,-1.9647,-1.9625,-1.9581,-1.9581,-1.952,-1.9349,-1.931,-1.9464,-1.9462,-1.9462,-1.9461,-1.946,-1.9964,-1.9907,-1.9946,-1.9941,-1.9906,-1.9916,-1.984,-1.9831,-1.9816,-1.9828,-1.9759,-1.9642,-1.961,-1.9594,-1.9561,-1.9771,-1.9771,-1.9771,-1.9771,-2.0094,-2.007,-2.0096,-2.0091,-2.0079,-2.0014,-2.0058,-2.0011,-1.9954,-1.9941,-1.9901,-1.9851,-1.9837,-1.9813,-1.9792,-1.976,-2.0016,-2.0016,-2.0017,-2.0217,-2.0189,-2.024,-2.0182,-2.0149,-2.0123,-2.0162,-2.016,-2.0082,-2.0025,-1.993,-1.992,-1.9838,-1.9814,-1.976,-1.9729,-1.9669,0,0]},{"header":{"parameterUnit":"m.s-1","parameterCategory":1,"la1":30.2992,"la2":30.254,"lo1":-89.0895,"lo2":-89.0443,"dy":0.0025,"dx":0.0025,"nx":19,"ny":19,"refTime":"2026-05-15T03:00:00:Z","depth":0,"parameterNumber":3,"parameterNumberName":"V-component_of_WINDS"},"data":[0,0,0,-1.6333,-1.6335,-1.6398,-1.6398,-1.6474,-1.6474,0,0,0,0,0,0,0,0,0,0,0,-1.6314,-1.6315,-1.6333,-1.6335,-1.6398,-1.6398,-1.6474,-1.6474,0,0,0,0,0,0,0,0,0,0,0,-1.6314,-1.6315,-1.6315,-1.6335,-1.6398,-1.6398,-1.6473,-1.6427,0,0,0,0,0,0,0,0,0,0,-1.6367,-1.6349,-1.6315,-1.6315,-1.6335,-1.6397,-1.6398,-1.6425,-1.643,-1.6444,0,-1.6458,0,-1.6468,-1.6479,-1.648,0,0,0,-1.6335,-1.6345,-1.6362,-1.6315,-1.6336,-1.6397,-1.6369,-1.6428,-1.6434,-1.6451,-1.6459,-1.6462,-1.6469,-1.648,-1.648,-1.6565,-1.6565,0,0,-1.6331,-1.6325,-1.6359,-1.6366,-1.6359,-1.6367,-1.6371,-1.6431,-1.6439,-1.646,-1.6464,-1.647,-1.648,-1.6481,-1.6564,-1.6565,0,0,0,-1.6321,-1.6322,-1.6339,-1.6363,-1.6375,-1.6369,-1.6374,-1.6437,-1.6443,-1.6465,-1.6471,-1.6481,-1.6482,-1.6564,-1.6565,-1.6578,0,0,0,-1.6319,-1.6317,-1.6337,-1.6334,-1.6374,-1.6407,-1.6378,-1.6439,-1.6446,-1.6471,-1.6481,-1.6482,-1.6564,-1.6564,-1.6577,-1.6585,0,0,0,-1.631,-1.6316,-1.6325,-1.6333,-1.636,-1.6406,-1.6416,-1.644,-1.6449,-1.648,-1.6483,-1.6563,-1.6564,-1.6576,-1.6583,-1.6605,0,0,0,-1.6298,-1.6336,-1.6325,-1.6369,-1.636,-1.6415,-1.6415,-1.6456,-1.6484,-1.6481,-1.6564,-1.6565,-1.6575,-1.6582,-1.6603,-1.6621,-1.6628,0,0,-1.6342,-1.6341,-1.6367,-1.6359,-1.6414,-1.6406,-1.6462,-1.6493,-1.6501,-1.6543,-1.6545,-1.6577,-1.6583,-1.6604,-1.6671,-1.6677,0,0,0,-1.6378,-1.6397,-1.6413,-1.644,-1.6465,-1.6486,-1.651,-1.6521,-1.6556,-1.6522,-1.6591,-1.6595,-1.6608,-1.6616,-1.6621,-1.6632,-1.6569,-1.6569,-1.6568,-1.6429,-1.6439,-1.6482,-1.6498,-1.6524,-1.6547,-1.6568,-1.6587,-1.6588,-1.6604,-1.6616,-1.6656,-1.6666,-1.667,-1.6681,-1.6627,-1.6627,-1.6627,-1.6627,-1.6492,-1.652,-1.6521,-1.6563,-1.6572,-1.6607,-1.663,-1.6629,-1.6662,-1.6648,-1.666,-1.6643,-1.6676,-1.6685,-1.6628,-1.6628,-1.6628,-1.6628,-1.6628,-1.6526,-1.6541,-1.6555,-1.6593,-1.6622,-1.6636,-1.6668,-1.6674,-1.6681,-1.6692,-1.6705,-1.6704,-1.6704,-1.6698,-1.6698,-1.6698,-1.6698,-1.6698,-1.6698,-1.6555,-1.6571,-1.6597,-1.6627,-1.6644,-1.6667,-1.669,-1.6707,-1.6726,-1.6728,-1.6729,-1.6727,-1.6678,-1.6664,-1.6701,-1.67,-1.67,-1.67,-1.67,-1.6614,-1.6602,-1.6643,-1.666,-1.6694,-1.6721,-1.673,-1.6762,-1.6777,-1.6792,-1.6788,-1.6751,-1.6749,-1.6746,-1.6735,-1.6787,-1.6787,-1.6787,-1.6787,-1.6642,-1.6643,-1.6685,-1.6712,-1.674,-1.6751,-1.6794,-1.6811,-1.6827,-1.6836,-1.683,-1.6816,-1.6812,-1.6813,-1.6808,-1.6798,-1.6865,-1.6865,-1.6865,-1.6678,-1.6681,-1.6718,-1.6735,-1.6762,-1.6784,-1.6824,-1.6853,-1.6869,-1.6868,-1.6843,-1.684,-1.6818,-1.681,-1.6808,-1.68,-1.6782,0,0]}]]